Regional Weather Roundup
Issued by NWS

Home | Current Version | Previous Version | Graphics & Text | Print | Product List | Glossary On
Versions: 1 2 3 4 5 6 7 8 9 10 11 12 13 14 15 16 17 18 19 20 21 22 23 24 25 26 27 28 29 30 31 32 33 34 35 36 37 38 39 40 41 42 43 44 45 46 47 48 49 50
000
ASUS45 KSLC 251910
RWRUT

UTAH REGIONAL WEATHER ROUNDUP
NATIONAL WEATHER SERVICE SALT LAKE CITY UT
100 PM MDT MON JUL 25 2016

UTZ001>011-023>025-252000-

NORTHERN UTAH

CITY           SKY/WX    TMP DP  RH WIND       PRES   REMARKS
BRIGHAM CITY     N/A     89  30  12 NW5       30.09F
HILL AFB       SUNNY     91  41  18 SW10      30.12F
LOGAN          SUNNY     84  39  20 VRB3      30.11F
OGDEN          SUNNY     93  38  14 W10       30.09F
PROVO AIRPORT  MOSUNNY   93  45  18 VRB6      30.10F
SALT LAKE CITY MOSUNNY   96  43  16 SE10      30.05F HX  92
VERNAL         SUNNY     89  27  10 VRB5      30.17F
WENDOVER       SUNNY     90  30  12 E8        30.09F
HEBER CITY     SUNNY     93  32  11 SW12G20   30.16F

$$

UTZ012>022-026-027-252000-

SOUTHERN/CENTRAL UTAH

CITY           SKY/WX    TMP DP  RH WIND       PRES   REMARKS
BLANDING       MOSUNNY   86  45  23 S3        30.33F
BRYCE CANYON   PTSUNNY   82  39  21 SW13      30.38F
CEDAR CITY     SUNNY     94  42  16 S9G21     30.20F HX  90
DELTA          SUNNY     97  32  10 SW12G20   30.11F HX  91
MILFORD        SUNNY     97  36  12 SW17      30.13F HX  92
MOAB/CYNLANDS  SUNNY     98  41  14 NE7       30.10F HX  93
PRICE          MOSUNNY   88  28  11 SW13      30.22F
ST GEORGE      CLEAR     99  52  20 W5        30.01F HX  96

$$

REGIONAL REPORTS     COLORADO/ARIZONA

CITY           SKY/WX    TMP DP  RH WIND       PRES   REMARKS
CRAIG, CO      SUNNY     90  32  12 MISG      30.26F
GRAND JUNCTION SUNNY     93  41  16 VRB7      30.15F
RIFLE          SUNNY     91  38  15 NW8       30.20F
MONTROSE       SUNNY     90  42  18 MISG      30.24F
CORTEZ         SUNNY     86  47  25 W5        30.26F
PAGE, AZ       MOSUNNY   95  44  17 VRB5      30.11F HX  91
GRAND CANYON   PTSUNNY   86  48  26 NW7       30.33F
KINGMAN        PTSUNNY   96  54  24 SW22      30.08F HX  94
FLAGSTAFF      PTSUNNY   81  47  30 SE8       30.34F

$$

REGIONAL REPORTS    NEVADA/IDAHO/WYOMING

CITY           SKY/WX    TMP DP  RH WIND       PRES   REMARKS
LAS VEGAS, NV  MOSUNNY  104  40  11 VRB3      29.88F HX  98
ELY            SUNNY     91  20   7 SW14      30.22F
ELKO           SUNNY     92  17   6 VRB3      30.14F
POCATELLO, ID  SUNNY     87  36  16 NW5       30.12F
BURLEY         SUNNY     85  47  26 CALM      30.09F
EVANSTON, WY   SUNNY     85  31  14 SW14G23   30.30F
ROCK SPRINGS   SUNNY     86  14   7 VRB3      30.29F
KEMMERER         N/A    N/A N/A N/A CALM      30.33S

$$



USA.gov is the U.S. government's official web portal to all federal, state and local government web resources and services.